Find Kosmos-1541

NORAD ID: 14790 Int'l Des: 1984-024 Owner: PVO Country: SU operational
MEOELLIPTICALHEO_ELLIPTICALSEMI_SYNC

Current View

Loading 3D Globe...

About Kosmos-1541

Kosmos-1541 (NORAD 14790) is a satellite launched Mar 6, 1984 by PVO of SU. It operates in MEO, ELLIPTICAL, HEO_ELLIPTICAL, SEMI_SYNC orbit with a mass of 1250.00 kg.

Upcoming Passes

Passes for default location (London). Set your location on the main map for personalized predictions.

Altitude History

Loading altitude history...

Two-Line Element Set

1 14790U 84024A 26194.46423867 .00000125 00000-0 00000+0 0 9998
2 14790 71.7029 147.4004 5100844 339.7807 238.7199 2.00601751282461
Epoch: Jul 13, 2026 • Age: 29 hours

Current Status

Altitude 13762.3 km
Apogee / Perigee N/A
Velocity 4.96 km/s
Sub-Earth Point 64.89°N, 15.19°E
Launch Date Mar 6, 1984
Age 42.3 years
Type other

Technical Details

Classification Payload
Mass 1250.00 kg
Dry Mass 1150.00 kg
Total Mass 1250.00 kg
Length 4.00 m
Diameter 2.00 m
Span 5.00 m
Shape Cyl + 2 Pan
Manufacturer NPOL/KOMET
Bus Type Oko
Phase Status In Orbit
Owner/State PVO/SU

Most Searched